Buckhannon, WV

12:18 PM EDT on September 22, 2017 (GMT -0400)
Buckhannon

Weather History for KW22 - October, 2011

Change the Weather History Date:

Friday, October 28, 2011

  Actual Average (KCKB) Record (KCKB)
Temperature  
Mean Temperature 36 °F -  
Max Temperature 41 °F 62 °F 79 °F (1939)
Min Temperature 32 °F 36 °F 20 °F (1942)
Degree Days  
Heating Degree Days 28    
Moisture  
Dew Point 34 °F    
Average Humidity 91    
Maximum Humidity 100    
Minimum Humidity 75    
Precipitation  
Precipitation 0.00 in - - ()
Sea Level Pressure  
Sea Level Pressure 30.14 in    
Wind  
Wind Speed 2 mph (NE)    
Max Wind Speed 9 mph    
Max Gust Speed 16 mph    
Visibility 10 miles    
Events      
Averages and records for this station are not official NWS values.
T = Trace of Precipitation, MM = Missing Value Source: NWS Daily Summary

Daily Weather History Graph

Daily Weather History Graph

Search for Another Location

Airport or City:

Trip Planner

Search our weather history database for the weather conditions in past years. The results will help you decide how hot, cold, wet, or windy it might be!

Date:

Astronomy

Oct. 28, 2011 Rise Set
Actual Time 7:43 AM EDT 6:25 PM EDT
Civil Twilight 7:16 AM EDT 6:52 PM EDT
Nautical Twilight 6:44 AM EDT 7:24 PM EDT
Astronomical Twilight 6:13 AM EDT 7:55 PM EDT
Moon 9:56 AM EDT (10/28) 7:48 PM EDT (10/28)
Length of Visible Light 11h 36m
Length of Day
10h 41m
Waxing Crescent, 5% of the Moon is Illuminated
Oct 28
Waxing Crescent
Nov 2
First Quarter
Nov 10
Full
Nov 18
Last Quarter
Nov 25
New

Hourly Weather History & Observations

Time (EDT) Temp. Windchill Dew Point Humidity Pressure Visibility Wind Dir Wind Speed Gust Speed Precip Events Conditions
12:15 AM 37.4 °F - 37.4 °F 100% 30.09 in 10.0 mi Calm Calm - N/A   Overcast
12:55 AM 37.4 °F - 37.4 °F 100% 30.11 in 10.0 mi Calm Calm - N/A   Overcast
1:15 AM 37.4 °F - 37.4 °F 100% 30.11 in 10.0 mi Calm Calm - N/A   Overcast
1:35 AM 37.4 °F - 37.4 °F 100% 30.12 in 10.0 mi Calm Calm - N/A   Overcast
1:55 AM 37.4 °F - 37.4 °F 100% 30.12 in 10.0 mi Calm Calm - N/A   Overcast
2:15 AM 37.4 °F 34.9 °F 37.4 °F 100% 30.12 in 10.0 mi NNE 3.5 mph - N/A   Overcast
2:35 AM 37.4 °F 32.8 °F 37.4 °F 100% 30.12 in 10.0 mi NNE 5.8 mph - N/A   Overcast
2:55 AM 37.4 °F - 37.4 °F 100% 30.14 in 10.0 mi Calm Calm - N/A   Overcast
3:15 AM 37.4 °F 34.9 °F 37.4 °F 100% 30.13 in 10.0 mi NE 3.5 mph - N/A   Mostly Cloudy
3:35 AM 35.6 °F 29.9 °F 35.6 °F 100% 30.13 in 10.0 mi NE 6.9 mph - N/A   Mostly Cloudy
3:55 AM 35.6 °F 31.7 °F 35.6 °F 100% 30.13 in 10.0 mi NE 4.6 mph - N/A   Mostly Cloudy
4:15 AM 35.6 °F 30.7 °F 35.6 °F 100% 30.13 in 10.0 mi NNE 5.8 mph - N/A   Mostly Cloudy
4:35 AM 35.6 °F 30.7 °F 35.6 °F 100% 30.13 in 10.0 mi NE 5.8 mph - N/A   Overcast
4:55 AM 35.6 °F 30.7 °F 33.8 °F 93% 30.14 in 10.0 mi NE 5.8 mph - N/A   Mostly Cloudy
5:15 AM 35.6 °F 29.9 °F 33.8 °F 93% 30.13 in 10.0 mi NE 6.9 mph - N/A   Partly Cloudy
5:35 AM 33.8 °F 27.7 °F 32.0 °F 93% 30.14 in 10.0 mi NE 6.9 mph - N/A   Clear
6:15 AM 32.0 °F - 32.0 °F 100% 30.15 in 10.0 mi Calm Calm - N/A   Clear
6:55 AM 32.0 °F - 32.0 °F 100% 30.15 in 10.0 mi Calm Calm - N/A   Clear
7:15 AM 32.0 °F - 32.0 °F 100% 30.15 in 10.0 mi Calm Calm - N/A   Clear
7:35 AM 32.0 °F - 32.0 °F 100% 30.15 in 10.0 mi Calm Calm - N/A   Clear
7:55 AM 32.0 °F - 32.0 °F 100% 30.15 in 10.0 mi Calm Calm - N/A   Clear
8:15 AM 32.0 °F - 32.0 °F 100% 30.15 in 10.0 mi Calm Calm - N/A   Clear
8:35 AM 32.0 °F 27.5 °F 32.0 °F 100% 30.14 in 10.0 mi NE 4.6 mph - N/A   Clear
8:55 AM 33.8 °F - 32.0 °F 93% 30.15 in 10.0 mi Calm Calm - N/A   Clear
9:15 AM 33.8 °F 30.8 °F 32.0 °F 93% 30.17 in 10.0 mi NE 3.5 mph - N/A   Clear
9:35 AM 33.8 °F 28.6 °F 32.0 °F 93% 30.16 in 10.0 mi NE 5.8 mph - N/A   Clear
9:55 AM 35.6 °F - 32.0 °F 87% 30.16 in 10.0 mi Calm Calm - N/A   Clear
10:15 AM 35.6 °F 30.7 °F 32.0 °F 87% 30.16 in 10.0 mi NNE 5.8 mph - N/A   Clear
10:35 AM 37.4 °F 32.8 °F 33.8 °F 87% 30.17 in 10.0 mi NNE 5.8 mph - N/A   Clear
10:55 AM 37.4 °F 32.8 °F 33.8 °F 87% 30.17 in 10.0 mi NNE 5.8 mph - N/A   Clear
11:15 AM 37.4 °F 32.1 °F 32.0 °F 81% 30.17 in 10.0 mi NE 6.9 mph - N/A   Clear
11:35 AM 39.2 °F 34.2 °F 33.8 °F 81% 30.16 in 10.0 mi NNE 6.9 mph - N/A   Clear
11:55 AM 39.2 °F - 33.8 °F 81% 30.17 in 10.0 mi Calm Calm - N/A   Clear
12:15 PM 39.2 °F - 33.8 °F 81% 30.18 in 10.0 mi Calm Calm - N/A   Clear
12:35 PM 39.2 °F 34.2 °F 32.0 °F 75% 30.18 in 10.0 mi NNE 6.9 mph - N/A   Clear
1:15 PM 39.2 °F 37.0 °F 33.8 °F 81% 30.14 in 10.0 mi NNE 3.5 mph - N/A   Clear
1:35 PM 39.2 °F 37.0 °F 33.8 °F 81% 30.14 in 10.0 mi North 3.5 mph - N/A   Clear
1:55 PM 41.0 °F - 33.8 °F 76% 30.13 in 10.0 mi Calm Calm - N/A   Clear
2:15 PM 41.0 °F 38.0 °F 33.8 °F 76% 30.12 in 10.0 mi North 4.6 mph - N/A   Clear
2:35 PM 41.0 °F - 33.8 °F 76% 30.12 in 10.0 mi Calm Calm - N/A   Clear
3:15 PM 41.0 °F - 33.8 °F 76% 30.12 in 10.0 mi Calm Calm - N/A   Clear
3:35 PM 41.0 °F - 33.8 °F 76% 30.11 in 10.0 mi Calm Calm - N/A   Clear
3:55 PM 41.0 °F - 33.8 °F 76% 30.11 in 10.0 mi Calm Calm - N/A   Clear
4:15 PM 41.0 °F - 33.8 °F 76% 30.11 in 10.0 mi Calm Calm - N/A   Clear
4:35 PM 39.2 °F 33.6 °F 32.0 °F 75% 30.12 in 5.0 mi ESE 8.1 mph 16.1 mph N/A   Scattered Clouds
4:55 PM 37.4 °F 30.8 °F 33.8 °F 87% 30.12 in 3.0 mi SE 9.2 mph - N/A   Overcast
5:15 PM 37.4 °F 32.1 °F 35.6 °F 93% 30.12 in 3.0 mi ESE 6.9 mph - N/A   Overcast
5:35 PM 37.4 °F 33.8 °F 37.4 °F 100% 30.12 in 3.0 mi ESE 4.6 mph - N/A   Overcast
5:55 PM 35.6 °F 29.9 °F 35.6 °F 100% 30.13 in 4.0 mi ESE 6.9 mph - N/A   Mostly Cloudy
6:15 PM 35.6 °F 30.7 °F 35.6 °F 100% 30.13 in 5.0 mi East 5.8 mph - N/A   Mostly Cloudy
6:35 PM 35.6 °F 32.8 °F 35.6 °F 100% 30.13 in 7.0 mi East 3.5 mph - N/A   Scattered Clouds
6:55 PM 35.6 °F - 35.6 °F 100% 30.14 in 8.0 mi Calm Calm - N/A   Mostly Cloudy
7:15 PM 35.6 °F - 35.6 °F 100% 30.14 in 10.0 mi Calm Calm - N/A   Scattered Clouds
7:55 PM 35.6 °F - 35.6 °F 100% 30.14 in 10.0 mi Calm Calm - N/A   Partly Cloudy
8:15 PM 35.6 °F 32.8 °F 35.6 °F 100% 30.13 in 10.0 mi ENE 3.5 mph - N/A   Scattered Clouds
8:35 PM 33.8 °F 28.6 °F 33.8 °F 100% 30.13 in 10.0 mi ENE 5.8 mph - N/A   Partly Cloudy
9:15 PM 33.8 °F 28.6 °F 33.8 °F 100% 30.13 in 10.0 mi NE 5.8 mph - N/A   Partly Cloudy
9:35 PM 33.8 °F 29.6 °F 33.8 °F 100% 30.12 in 10.0 mi North 4.6 mph - N/A   Clear
9:55 PM 33.8 °F 29.6 °F 33.8 °F 100% 30.11 in 10.0 mi NE 4.6 mph - N/A   Clear
10:15 PM 33.8 °F 28.6 °F 33.8 °F 100% 30.10 in 10.0 mi NNE 5.8 mph - N/A   Partly Cloudy
10:35 PM 33.8 °F 28.6 °F 33.8 °F 100% 30.09 in 10.0 mi NNE 5.8 mph - N/A   Partly Cloudy
10:55 PM 33.8 °F 28.6 °F 33.8 °F 100% 30.09 in 10.0 mi NNE 5.8 mph - N/A   Partly Cloudy
11:15 PM 33.8 °F 27.0 °F 33.8 °F 100% 30.08 in 8.0 mi NNE 8.1 mph - N/A   Mostly Cloudy
11:35 PM 33.8 °F 27.0 °F 33.8 °F 100% 30.08 in 9.0 mi North 8.1 mph - N/A   Partly Cloudy
11:55 PM 33.8 °F 27.0 °F 33.8 °F 100% 30.07 in 9.0 mi NNE 8.1 mph - N/A   Scattered Clouds